TimeEST,TemperatureF,Dew PointF,Humidity,Sea Level PressureIn,VisibilityMPH,Wind Direction,Wind SpeedMPH,Gust SpeedMPH,PrecipitationIn,Events,Conditions,WindDirDegrees,DateUTC
12:53 AM,42.1,33.1,70,30.10,10.0,West,4.6,-,N/A,,Clear,270,2013-01-21 05:53:00
1:53 AM,39.9,36.0,86,30.09,10.0,West,6.9,-,N/A,,Clear,270,2013-01-21 06:53:00
2:53 AM,39.0,33.1,79,30.09,10.0,WNW,4.6,-,N/A,,Clear,300,2013-01-21 07:53:00
3:53 AM,39.0,33.1,79,30.08,10.0,WNW,3.5,-,N/A,,Clear,290,2013-01-21 08:53:00
4:53 AM,37.9,30.9,76,30.06,10.0,WNW,6.9,-,N/A,,Clear,300,2013-01-21 09:53:00
5:53 AM,39.9,28.9,65,30.07,10.0,WNW,8.1,-,N/A,,Clear,290,2013-01-21 10:53:00
6:53 AM,37.0,30.0,76,30.08,10.0,NW,4.6,-,N/A,,Clear,320,2013-01-21 11:53:00
7:53 AM,37.0,28.0,70,30.09,10.0,WNW,5.8,-,N/A,,Clear,290,2013-01-21 12:53:00
8:53 AM,41.0,30.9,67,30.11,10.0,WNW,5.8,-,N/A,,Clear,290,2013-01-21 13:53:00
9:53 AM,46.9,30.0,52,30.11,10.0,WNW,9.2,-,N/A,,Clear,290,2013-01-21 14:53:00
10:53 AM,52.0,28.9,41,30.11,10.0,WNW,10.4,21.9,N/A,,Clear,300,2013-01-21 15:53:00
11:53 AM,55.0,28.0,35,30.09,10.0,NW,10.4,-,N/A,,Clear,310,2013-01-21 16:53:00
12:53 PM,55.9,28.0,34,30.06,10.0,West,16.1,23.0,N/A,,Clear,280,2013-01-21 17:53:00
1:53 PM,57.0,28.9,34,30.04,10.0,West,6.9,21.9,N/A,,Clear,280,2013-01-21 18:53:00
2:53 PM,55.0,27.0,34,30.05,10.0,West,12.7,21.9,N/A,,Clear,270,2013-01-21 19:53:00
3:53 PM,52.0,26.1,37,30.07,10.0,WNW,18.4,26.5,N/A,,Clear,290,2013-01-21 20:53:00
4:53 PM,48.9,23.0,36,30.08,10.0,West,15.0,25.3,N/A,,Clear,270,2013-01-21 21:53:00
5:53 PM,46.0,19.9,35,30.10,10.0,West,12.7,21.9,N/A,,Clear,270,2013-01-21 22:53:00
6:53 PM,44.1,19.0,37,30.12,10.0,West,10.4,17.3,N/A,,Clear,270,2013-01-21 23:53:00
7:53 PM,43.0,19.0,38,30.13,10.0,West,9.2,-,N/A,,Clear,280,2013-01-22 00:53:00
8:53 PM,42.1,18.0,38,30.14,10.0,West,12.7,-,N/A,,Clear,270,2013-01-22 01:53:00
9:53 PM,39.9,16.0,38,30.14,10.0,WNW,13.8,20.7,N/A,,Clear,290,2013-01-22 02:53:00
10:53 PM,37.9,15.1,39,30.14,10.0,West,11.5,20.7,N/A,,Clear,280,2013-01-22 03:53:00
11:53 PM,36.0,16.0,44,30.13,10.0,WNW,10.4,-,N/A,,Clear,290,2013-01-22 04:53:00